Location: Newark
(47.4000°N, 7.5833°E)
Time: 01:28:27
(UTC+00:00)

N. Korean satellite - Pass Details

Date: 30 January 2020
Orbit: 456 x 505 km, 97.2° (Epoch: 25 February)

Event Time Altitude Azimuth Distance (km) Brightness Sun altitude
Rises 05:07:44 0° 16° (NNE) 2,556 10.4 -18.9°
Reaches altitude 10° 05:09:49 10° 21° (NNE) 1,679 9.5 -18.5°
Maximum altitude 05:13:23 55° 100° (E) 596 7.3 -17.9°
Drops below altitude 10° 05:16:57 10° 179° (S) 1,690 9.4 -17.3°
Sets 05:19:04 0° 184° (S) 2,575 10.3 -17.0°
